Augusta, ME

10:53 PM EST on February 24, 2017 (GMT -0500)
Augusta State

Weather History for KAUG - May, 2013

Change the Weather History Date:

Sunday, May 12, 2013

  Actual Average Record
Temperature  
Mean Temperature 55 °F 54 °F  
Max Temperature 63 °F 64 °F 87 °F (1959)
Min Temperature 46 °F 43 °F 32 °F (2010)
Degree Days  
Heating Degree Days 10 11  
Month to date heating degree days 158  
Since 1 July heating degree days 7162  
Cooling Degree Days 0 0  
Month to date cooling degree days 0  
Year to date cooling degree days 0  
Growing Degree Days 5 (Base 50)    
Moisture  
Dew Point 55 °F    
Average Humidity 93    
Maximum Humidity 100    
Minimum Humidity 66    
Precipitation  
Precipitation 0.07 in 0.11 in 2.15 in (1989)
Month to date precipitation 1.44  
Year to date precipitation 13.64  
Sea Level Pressure  
Sea Level Pressure 29.61 in    
Wind  
Wind Speed 5 mph (South)    
Max Wind Speed 10 mph    
Max Gust Speed -    
Visibility 4 miles    
Events Fog , Rain    
T = Trace of Precipitation, MM = Missing Value Source: NWS Daily Summary

Daily Weather History Graph

Daily Weather History Graph

Search for Another Location

Airport or City:

Trip Planner

Search our weather history database for the weather conditions in past years. The results will help you decide how hot, cold, wet, or windy it might be!

Date:

Astronomy

May. 12, 2013 Rise Set
Actual Time 5:15 AM EDT 7:56 PM EDT
Civil Twilight 4:42 AM EDT 8:29 PM EDT
Nautical Twilight 4:00 AM EDT 9:11 PM EDT
Astronomical Twilight 3:12 AM EDT 10:00 PM EDT
Moon 7:06 AM EDT (5/12) 10:22 PM EDT (5/12)
Length of Visible Light 15h 47m
Length of Day
14h 41m
Waxing Crescent, 6% of the Moon is Illuminated
May 12
Waxing Crescent
May 18
First Quarter
May 25
Full
May 31
Last Quarter
Jun 8
New

Hourly Weather History & Observations

Time (EDT) Temp. Dew Point Humidity Pressure Visibility Wind Dir Wind Speed Gust Speed Precip Events Conditions
12:11 AM 57.2 °F 57.2 °F 100% 29.69 in 3.0 mi South 6.9 mph - N/A   Overcast
12:53 AM 57.9 °F 57.9 °F 100% 29.68 in 5.0 mi SSW 5.8 mph - N/A   Overcast
1:53 AM 57.9 °F 57.0 °F 97% 29.65 in 4.0 mi Calm Calm - N/A   Overcast
2:41 AM 57.2 °F 57.2 °F 100% 29.65 in 1.5 mi SE 4.6 mph - N/A   Overcast
2:53 AM 57.9 °F 57.9 °F 100% 29.65 in 0.8 mi SSE 3.5 mph - N/A   Mist
3:19 AM 57.2 °F 57.2 °F 100% 29.65 in 0.2 mi SSE 6.9 mph - N/A Fog Fog
3:26 AM 57.2 °F 57.2 °F 100% 29.65 in 0.2 mi SSE 6.9 mph - N/A Fog Fog
3:53 AM 57.0 °F 57.0 °F 100% 29.64 in 0.2 mi SSE 5.8 mph - N/A Fog Fog
4:53 AM 57.0 °F 57.0 °F 100% 29.64 in 0.2 mi SSE 4.6 mph - N/A Fog Fog
5:53 AM 57.0 °F 55.9 °F 96% 29.65 in 0.2 mi Calm Calm - N/A Fog Fog
6:25 AM 57.2 °F 55.4 °F 94% 29.64 in 0.8 mi Calm Calm - N/A   Mist
6:32 AM 57.2 °F 57.2 °F 100% 29.64 in 1.5 mi Calm Calm - N/A   Overcast
6:46 AM 57.2 °F 55.4 °F 94% 29.64 in 0.2 mi SE 3.5 mph - N/A Fog Fog
6:53 AM 57.0 °F 57.0 °F 100% 29.65 in 0.2 mi SSE 3.5 mph - N/A Fog Fog
7:02 AM 57.2 °F 57.2 °F 100% 29.64 in 0.5 mi SE 4.6 mph - N/A Fog Fog
7:12 AM 57.2 °F 57.2 °F 100% 29.65 in 0.2 mi SSE 5.8 mph - N/A Fog Fog
7:53 AM 57.0 °F 57.0 °F 100% 29.63 in 0.8 mi South 4.6 mph - 0.00 in Rain Light Rain
8:12 AM 57.2 °F 57.2 °F 100% 29.62 in 0.2 mi SSE 5.8 mph - 0.01 in Fog , Rain Light Rain
8:34 AM 57.2 °F 57.2 °F 100% 29.61 in 0.5 mi Variable 3.5 mph - 0.01 in Fog , Rain Light Rain
8:49 AM 57.2 °F 57.2 °F 100% 29.61 in 1.8 mi SSE 5.8 mph - 0.01 in Rain Light Rain
8:53 AM 57.0 °F 57.0 °F 100% 29.61 in 2.0 mi SSE 6.9 mph - 0.01 in Rain Light Rain
9:01 AM 57.2 °F 57.2 °F 100% 29.61 in 1.0 mi SSE 5.8 mph - 0.00 in Rain Light Rain
9:09 AM 57.2 °F 57.2 °F 100% 29.61 in 0.5 mi SSE 5.8 mph - 0.00 in Fog , Rain Light Rain
9:53 AM 57.0 °F 57.0 °F 100% 29.60 in 0.5 mi SSE 4.6 mph - 0.00 in Fog Fog
10:05 AM 57.2 °F 57.2 °F 100% 29.59 in 0.2 mi SSE 6.9 mph - 0.00 in Fog , Rain Light Rain
10:19 AM 57.2 °F 57.2 °F 100% 29.59 in 0.5 mi SSE 6.9 mph - 0.02 in Fog , Rain Light Rain
10:29 AM 57.2 °F 57.2 °F 100% 29.58 in 0.2 mi SSE 8.1 mph - 0.02 in Fog , Rain Light Rain
10:53 AM 57.0 °F 57.0 °F 100% 29.59 in 0.2 mi South 8.1 mph - 0.03 in Fog , Rain Light Rain
11:10 AM 57.2 °F 57.2 °F 100% 29.58 in 0.2 mi South 6.9 mph - 0.00 in Fog , Rain Light Rain
11:16 AM 57.2 °F 57.2 °F 100% 29.58 in 0.8 mi South 6.9 mph - 0.00 in Rain Light Rain
11:20 AM 57.2 °F 57.2 °F 100% 29.58 in 2.0 mi Variable 5.8 mph - 0.00 in Rain Light Rain
11:29 AM 57.2 °F 57.2 °F 100% 29.57 in 4.0 mi Variable 6.9 mph - 0.01 in Rain Light Rain
11:53 AM 57.9 °F 57.0 °F 97% 29.57 in 5.0 mi SSW 5.8 mph - 0.01 in   Overcast
12:53 PM 57.9 °F 57.0 °F 97% 29.57 in 9.0 mi WSW 3.5 mph - 0.00 in   Overcast
1:53 PM 57.0 °F 55.0 °F 93% 29.56 in 10.0 mi NNW 6.9 mph - 0.00 in   Overcast
2:53 PM 57.0 °F 55.0 °F 93% 29.56 in 10.0 mi North 5.8 mph - 0.00 in   Overcast
3:08 PM 57.2 °F 55.4 °F 94% 29.55 in 10.0 mi North 4.6 mph - N/A   Overcast
3:32 PM 60.8 °F 55.4 °F 82% 29.54 in 10.0 mi Variable 4.6 mph - N/A   Mostly Cloudy
3:43 PM 60.8 °F 55.4 °F 82% 29.55 in 10.0 mi Calm Calm - N/A   Mostly Cloudy
3:53 PM 60.1 °F 55.0 °F 83% 29.55 in 10.0 mi North 5.8 mph - N/A   Mostly Cloudy
4:12 PM 60.8 °F 53.6 °F 77% 29.55 in 10.0 mi Calm Calm - N/A   Overcast
4:53 PM 61.0 °F 55.0 °F 81% 29.55 in 10.0 mi NE 3.5 mph - N/A   Overcast
5:53 PM 62.1 °F 53.1 °F 72% 29.55 in 10.0 mi Calm Calm - N/A   Partly Cloudy
6:53 PM 60.1 °F 54.0 °F 80% 29.57 in 7.0 mi NW 4.6 mph - 0.02 in Rain Light Rain
7:53 PM 57.9 °F 51.1 °F 78% 29.60 in 10.0 mi West 8.1 mph - 0.00 in Rain Light Rain
8:53 PM 52.0 °F 44.1 °F 74% 29.65 in 10.0 mi NW 10.4 mph - 0.00 in   Mostly Cloudy
9:53 PM 50.0 °F 39.0 °F 66% 29.68 in 10.0 mi NW 8.1 mph - N/A   Overcast
10:53 PM 48.0 °F 39.9 °F 74% 29.70 in 10.0 mi WNW 4.6 mph - N/A   Overcast
11:53 PM 46.9 °F 39.9 °F 77% 29.73 in 10.0 mi Calm Calm - N/A   Mostly Cloudy